Skip Page Navigation
NASA JPL Caltech
NASA Logo - Jet Propulsion Laboratory + View the NASA Portal
+ Center for Near-Earth Object Studies
JPL Home Earth Solar System Stars & Galaxies Technology
JPL Solar System Dynamics
BODIES ORBITS EPHEMERIDES TOOLS PHYSICAL DATA DISCOVERY FAQ SITE MAP
JPL Small-Body Database Browser
Search: [ help ]  
(2019 JM)
Classification: Apollo [NEO]          SPK-ID: 3841684
Ephemeris | Orbit Diagram | Orbital Elements | Mission Design | Physical Parameters | Close-Approach Data ]

[ show orbit diagram ]
Orbital Elements at Epoch 2459200.5 (2020-Dec-17.0) TDB
Reference: JPL 6 (heliocentric ecliptic J2000)
 Element Value Uncertainty (1-sigma)   Units 
e .387609419682681 0.00047626  
a 1.591372028959849 0.0011876 au
q .9745412403154714 3.0708e-05 au
i 2.65240866688902 0.0025418 deg
node 44.88651648630147 0.00018508 deg
peri 215.3366095222528 0.0012399 deg
M 275.2713947060451 0.30579 deg
tp 2459373.077257922809
(2021-Jun-07.57725792)
0.81603 TDB
period 733.2566449862683
2.01
0.82084
0.002247
d
yr
n .4909604331055762 0.0005496 deg/d
Q 2.208202817604227 0.001648 au
  Orbit Determination Parameters
   # obs. used (total)      29  
   data-arc span      5 days  
   first obs. used      2019-05-02  
   last obs. used      2019-05-07  
   planetary ephem.      DE441  
   SB-pert. ephem.      SB441-N16  
   condition code      7  
   norm. resid. RMS      .50265  
   source      ORB  
   producer      Otto Matic  
   solution date      2021-Apr-15 21:14:56  

Additional Information
 Earth MOID = .00455423 au 
 Jupiter MOID = 2.87156 au 
 T_jup = 4.288 
[ show covariance matrix ]

Ephemeris | Orbit Diagram | Orbital Elements | Mission Design | Physical Parameters | Close-Approach Data ]

Physical Parameter Table
Parameter Symbol Value Units Sigma Reference Notes
absolute magnitude H 27.0   .27754 MPO477916 autocmod 2.6q

[ hide close-approach data ]
Close-Approach Data   ...sorted by Date/Time (TDB)
Date/Time (TDB) Time Uncertainty
(days_HH:MM)
Body Nominal Distance (au) Minimum Distance (au) Maximum Distance (au) V-relative (km/s) V-infinity (km/s) JD (TDB) Time Uncertainty (minutes) Semi-major axis (km) Semi-minor axis (km) range-LOV angle (deg) N-sigma BP Orbit Ref. Reference Modified
1942-Apr-17 03:00 3_21:39 Earth 0.206847724976912 0.135978269319153 0.277741533685803 13.5568785776033 13.5559283730176 2430466.624982603 5619.28185856463 3536352.02702005 8.62234907547678 1.8249311394718 121597.983261195 T 6 CATAB v2.0g-lin.ifort 2021-Apr-15 21:14:56 2021-Apr-15 21:14
2013-Apr-01 11:06 5_22:50 Earth 0.499691008752339 0.381102252596622 0.618301485201461 22.1974370082119 22.1971967875609 2456383.962837247 8569.94943627129 5916364.65775851 23.2016819704482 -1.5758069162542 73133.1792269025 T 6 CATAB v2.0g-lin.ifort 2021-Apr-15 21:14:56 2021-Apr-15 21:14
2015-Apr-11 00:42 4_12:04 Earth 0.328752084875787 0.247077559581683 0.410434742176725 17.1574802563768 17.1570078711449 2457123.528967230 6484.22745238218 4073797.13275719 11.9747448775 -1.19977151321848 66128.0802105501 T 6 CATAB v2.0g-lin.ifort 2021-Apr-15 21:14:56 2021-Apr-15 21:14
2017-Apr-20 22:23 3_02:12 Earth 0.16088717215315 0.119367183249535 0.202405700570815 12.1768242745232 12.1754641422194 2457864.432670577 4452.19424544459 2070256.42448655 4.52216502788042 -0.423063139787349 31535.4986978396 T 6 CATAB v2.0g-lin.ifort 2021-Apr-15 21:14:56 2021-Apr-15 21:14
2019-May-09 12:52 < 00:01 Earth 0.0100790172232147 0.0100467143273654 0.0101113182531518 7.56482419545956 7.52979727642607 2458613.036089628 0.333126273041432 1596.11658231483 9.14635479948564 -0.0883451079596374 559.575801960558 T 6 CATAB v2.0g-lin.ifort 2021-Apr-15 21:14:56 2021-Apr-15 21:14
2025-Jul-09 18:22 9_04:52 Earth 0.0426155000637289 0.0425372644494353 0.05006638886441 6.93539356472228 6.92637253326611 2460866.265080574 13252.0588569797 1190411.74892741 119.921185609293 -86.5609840378893 35301.7850715051 T 6 CATAB v2.0g-lin.ifort 2021-Apr-15 21:14:56 2021-Apr-15 21:14
2027-Jul-25 08:33 5_07:50 Earth 0.0745939751114774 0.0499052562740197 0.106435431094724 8.94797045592799 8.94397762453055 2461611.856163028 7669.96332577282 1829099.02314106 106.085074133189 36.1679421846228 41578.2739347798 T 6 CATAB v2.0g-lin.ifort 2021-Apr-15 21:14:56 2021-Apr-15 21:14
2029-Aug-03 08:52 3_10:22 Earth 0.159484937992028 0.122461228053342 0.197311182693331 11.8309771158379 11.8295649100432 2462351.869447499 4942.0254909619 1949749.9125866 156.859297976567 16.367317749067 31688.8188753134 T 6 CATAB v2.0g-lin.ifort 2021-Apr-15 21:14:56 2021-Apr-15 21:14
2031-Aug-11 07:35 2_15:13 Earth 0.263302437958436 0.226341253737182 0.300397946354163 15.0215544068696 15.0208807289084 2463089.815639504 3793.26231332306 1870121.20692199 238.336651624153 9.05079512208663 20808.2668552137 T 6 CATAB v2.0g-lin.ifort 2021-Apr-15 21:14:56 2021-Apr-15 21:14
2033-Aug-17 04:37 2_05:17 Earth 0.37391910285068 0.339263148462889 0.408601170753243 18.2845527040833 18.2841629820215 2463826.692216688 3197.02628411775 1735811.71963099 332.227325904482 5.14467142335019 12696.2073478722 T 6 CATAB v2.0g-lin.ifort 2021-Apr-15 21:14:56 2021-Apr-15 21:14
2035-Aug-23 11:22 1_22:38 Earth 0.483006086435931 0.451598455036629 0.514417663181666 21.4825008745219 21.4822440848745 2464562.973617202 2798.08899182602 1567781.94241483 427.856690370499 2.53186266822552 6480.44263609574 T 6 CATAB v2.0g-lin.ifort 2021-Apr-15 21:14:56 2021-Apr-15 21:14
2055-Apr-23 03:29 05:33 Mars 0.0876257316435818 0.0830301341232393 0.0922888039897751 8.1917235563471 8.19132470614108 2471745.645143481 333.286220168677 260760.292315832 905.9084997609 27.6703372185 7042.48945359741 T 6 CATAB v2.0g-lin.ifort 2021-Apr-15 21:14:56 2021-Apr-15 21:14
2062-Jan-20 10:36 04:42 Mars 0.0868004184362513 0.0719992684637492 0.101686117761588 10.8949111984976 10.8946084606539 2474209.941490215 281.513473945565 752411.299863176 311.735912984894 10.1930296726596 7200.99460606533 T 6 CATAB v2.0g-lin.ifort 2021-Apr-15 21:14:56 2021-Apr-15 21:14
2124-Apr-08 05:41 5_14:09 Earth 0.405068547610416 0.294191498547135 0.515953536034408 19.4187700299661 19.4184312904184 2496932.736591331 8048.79862710955 5529911.22133793 16.5134649468193 -0.966948244494731 50337.4706766953 T 6 CATAB v2.0g-lin.ifort 2021-Apr-15 21:14:56 2021-Apr-15 21:14
2126-Apr-14 19:15 6_03:55 Earth 0.292191865321166 0.181358071186236 0.403027419996718 16.1123387568964 16.1117727870685 2497669.302310883 8874.67342580242 5526992.81410051 9.22692300811135 -0.604769252420591 39161.3359880468 T 6 CATAB v2.0g-lin.ifort 2021-Apr-15 21:14:56 2021-Apr-15 21:14
2128-Apr-21 02:44 7_07:10 Earth 0.183805872570717 0.0765326628811647 0.29106513497381 12.8822451491806 12.8811198179189 2498406.614200429 10510.2469472275 5348337.53986564 4.10315786808613 0.104399564602114 8351.62199055853 T 6 CATAB v2.0g-lin.ifort 2021-Apr-15 21:14:56 2021-Apr-15 21:14
2130-Apr-29 16:10 9_19:54 Earth 0.0863067158900239 0.00345423618226076 0.181924381370126 9.92161019367162 9.9184980923859 2499145.173271565 14154.4064426904 4769538.91533923 3.32248103469334 2.32060476880581 131602.195186774 T 6 CATAB v2.0g-lin.ifort 2021-Apr-15 21:14:56 2021-Apr-15 21:14
2136-Apr-28 12:48 6_19:40 Earth 0.0938062202650244 0.0218216629635869 0.165779833147676 10.1506972918415 10.1478986667978 2501336.033359536 9820.37580116074 3588949.80104882 5.1650544105549 -0.878553352930543 30209.0729742552 T 6 CATAB v2.0g-lin.ifort 2021-Apr-15 21:14:56 2021-Apr-15 21:14
Ephemeris | Orbit Diagram | Orbital Elements | Mission Design | Physical Parameters | Close-Approach Data ]
ABOUT SSD CREDITS/AWARDS PRIVACY/COPYRIGHT GLOSSARY LINKS
FirstGov 2021-May-07 18:52 UT
(server date/time)  
NASA Home Page
Site Manager:   Ryan S. Park
Webmaster  Alan B. Chamberlin